Stations météo

réclame
Mon MeteoGroup
Tiree, Grande-Bretagne (3100): Température de l'air & dewpoint: 12.11.2018 04:00:00 - 18.11.2018 04:00:00 (GMT)Tiree, Grande-Bretagne (3100): Température de l'air -20cm & Température de l'air -100cm: 12.11.2018 04:00:00 - 18.11.2018 04:00:00 (GMT)Tiree, Grande-Bretagne (3100): Vitesse du vent & gusts: 12.11.2018 04:00:00 - 18.11.2018 04:00:00 (GMT)Tiree, Grande-Bretagne (3100): Direction du vent: 12.11.2018 04:00:00 - 18.11.2018 04:00:00 (GMT)Tiree, Grande-Bretagne (3100): reduced air pressure: 12.11.2018 04:00:00 - 18.11.2018 04:00:00 (GMT)Tiree, Grande-Bretagne (3100): visibility: 12.11.2018 04:00:00 - 18.11.2018 04:00:00 (GMT)Tiree, Grande-Bretagne (3100): Ensoleillement: 12.11.2018 04:00:00 - 18.11.2018 04:00:00 (GMT)Tiree, Grande-Bretagne (3100): Quantités de précipitations: 12.11.2018 04:00:00 - 18.11.2018 04:00:00 (GMT)
Date & Time tt [°C] td [°C] tt -20cm [°C] tt -100cm [°C] ff [km/h] ff [knt] fx [km/h] fx [knt] dd ppp [hPa] vv [km] sd [min] rr [mm]
18.11.2018 04:00:00 10,2 3,3 - - 44 24 57 31 ESE 1027,9 19 0 -
18.11.2018 03:00:00 10,0 3,9 - - 34 18 57 31 ESE 1028,4 16 0 0,0
18.11.2018 02:00:00 10,3 3,8 - - 21 11 61 33 ESE 1028,0 16 0 0,0
18.11.2018 01:00:00 10,2 3,4 - - 39 21 54 29 SE 1027,7 18 0 0,0
18.11.2018 00:00:00 10,5 3,1 - - 41 22 50 27 SE 1027,5 18 - 0,0
17.11.2018 23:00:00 10,3 3,7 - - 31 17 59 32 ESE 1027,5 17 0 0,0
17.11.2018 22:00:00 10,5 3,9 - - 41 22 54 29 SE 1026,6 18 0 0,0
17.11.2018 21:00:00 10,1 4,9 - - 37 20 50 27 SE 1026,6 17 0 0,0
17.11.2018 20:00:00 10,2 5,1 - - 34 18 46 25 SE 1026,4 20 0 0,0
17.11.2018 19:00:00 10,5 5,6 - - 34 18 50 27 ESE 1026,4 15 0 0,0
17.11.2018 18:00:00 10,6 6,5 - - 26 14 - - SE 1026,0 15 0 0,0
17.11.2018 17:00:00 10,4 6,9 - - 24 13 48 26 ESE 1026,2 14 0 0,0
17.11.2018 16:00:00 10,5 7,0 - - 41 22 54 29 SE 1025,7 10 42 0,0
17.11.2018 15:00:00 11,1 7,2 - - 39 21 50 27 SE 1025,8 15 60 0,0
17.11.2018 14:00:00 11,2 7,2 - - 31 17 57 31 SE 1026,1 9 60 0,0
17.11.2018 13:00:00 10,8 6,7 - - 52 28 65 35 SE 1025,0 9 48 0,0
17.11.2018 12:00:00 10,4 6,9 - - 39 21 50 27 SE 1025,7 10 0 0,0
17.11.2018 11:00:00 10,4 7,5 - - 35 19 52 28 SE 1025,7 10 0 0,0
17.11.2018 10:00:00 10,4 7,4 - - 39 21 54 29 ESE 1025,4 9 0 0,0
17.11.2018 09:00:00 10,7 8,3 10,4 10,2 39 21 59 32 ESE 1025,0 11 0 0,0
17.11.2018 08:00:00 11,3 8,7 - - 41 22 54 29 SE 1024,4 9 0 0,0
17.11.2018 07:00:00 11,4 8,8 - - 39 21 57 31 SE 1024,0 9 0 0,0
17.11.2018 06:00:00 11,3 8,5 - - 46 25 59 32 SE 1023,7 9 0 0,0
17.11.2018 05:00:00 11,3 9,1 - - 41 22 65 35 SE 1023,8 7 0 0,0
17.11.2018 04:00:00 11,5 9,4 - - 39 21 50 27 SE 1023,5 8 0 0,0
17.11.2018 03:00:00 11,8 9,6 - - 42 23 55 30 SE 1023,5 12 0 0,0
17.11.2018 02:00:00 12,0 9,8 - - 29 16 - - SE 1023,8 9 0 0,0
17.11.2018 01:00:00 11,7 9,8 - - 28 15 46 25 SE 1023,5 9 0 0,0
17.11.2018 00:00:00 11,6 9,9 - - 31 17 - - SE 1023,3 8 - 0,0
16.11.2018 23:00:00 11,7 9,6 - - 34 18 54 29 SE 1023,0 8 0 0,0
16.11.2018 22:00:00 11,9 9,7 - - 42 23 57 31 SE 1022,4 8 0 0,0
16.11.2018 21:00:00 12,0 9,9 - - 41 22 57 31 SSE 1021,8 10 0 0,0
16.11.2018 20:00:00 12,1 10,0 - - 44 24 63 34 SSE 1021,1 10 0 0,0
16.11.2018 19:00:00 12,2 10,1 - - 41 22 55 30 SE 1021,5 10 0 0,0
16.11.2018 18:00:00 12,1 9,9 - - 35 19 54 29 SE 1021,1 11 0 0,0
16.11.2018 17:00:00 12,4 10,2 - - 39 21 50 27 SSE 1020,6 11 0 0,0
16.11.2018 16:00:00 12,3 10,5 - - 39 21 48 26 SSE 1019,9 9 0 0,0
16.11.2018 15:00:00 12,4 11,0 - - 37 20 55 30 SSE 1019,8 9 0 0,0
16.11.2018 14:00:00 12,6 11,1 - - 41 22 54 29 SSE 1019,6 8 30 0,0
16.11.2018 13:00:00 13,0 11,4 - - 39 21 50 27 SSE 1019,2 9 30 0,0
16.11.2018 12:00:00 12,4 10,9 - - 34 18 48 26 SSE 1019,3 9 36 0,0
16.11.2018 11:00:00 11,8 10,3 - - 41 22 50 27 SSE 1019,3 9 36 0,0
16.11.2018 10:00:00 11,2 9,5 - - 41 22 55 30 SSE 1019,1 11 30 0,0
16.11.2018 09:00:00 10,7 8,7 10,4 10,2 42 23 54 29 SE 1018,5 12 6 0,0
16.11.2018 08:00:00 10,2 8,2 - - 37 20 48 26 SSE 1018,3 12 0 0,0
16.11.2018 07:00:00 10,0 8,5 - - 34 18 - - SSE 1017,7 9 0 0,0
16.11.2018 06:00:00 10,0 8,1 - - 31 17 46 25 SSE 1017,1 10 0 0,0
16.11.2018 05:00:00 9,7 7,2 - - 35 19 - - S 1016,7 13 0 0,0
16.11.2018 04:00:00 9,7 7,8 - - 35 19 - - S 1016,4 14 0 0,0
16.11.2018 03:00:00 9,4 7,3 - - 34 18 - - S 1016,1 14 0 0,0
16.11.2018 02:00:00 9,4 7,2 - - 29 16 - - S 1015,8 12 0 0,0
16.11.2018 01:00:00 9,6 7,3 - - 28 15 - - S 1015,6 12 0 0,0
16.11.2018 00:00:00 9,6 7,1 - - 26 14 48 26 SSW 1015,1 15 - 0,0
15.11.2018 23:00:00 10,1 7,8 - - 28 15 50 27 S 1014,0 9 0 0,0
15.11.2018 22:00:00 10,0 7,5 - - 31 17 48 26 S 1012,9 9 0 0,0
15.11.2018 21:00:00 9,9 7,5 - - 31 17 48 26 SSW 1011,9 13 0 0,0
15.11.2018 20:00:00 9,7 8,1 - - 31 17 54 29 SSW 1010,9 17 0 0,6
15.11.2018 19:00:00 10,4 8,0 - - 41 22 57 31 SSW 1010,0 20 0 0,0
15.11.2018 18:00:00 10,4 8,4 - - 37 20 57 31 S 1008,8 10 0 0,2
15.11.2018 17:00:00 10,1 8,4 - - 41 22 55 30 SSW 1007,5 9 0 0,4
15.11.2018 16:00:00 9,7 8,5 - - 37 20 48 26 S 1006,9 9 0 0,4
15.11.2018 15:00:00 9,2 8,5 - - 26 14 57 31 SSW 1007,0 9 0 1,2
15.11.2018 14:00:00 11,5 9,3 - - 55 30 78 42 S 1005,5 5 0 0,0
15.11.2018 13:00:00 12,4 8,8 - - 57 31 83 45 SSE 1004,6 8 0 0,0
15.11.2018 12:00:00 12,2 9,7 - - 59 32 80 43 SSE 1004,5 9 0 0,0
15.11.2018 11:00:00 12,3 10,9 - - 54 29 78 42 SSE 1005,2 6 0 0,0
15.11.2018 10:00:00 12,4 11,1 - - 59 32 74 40 SSE 1005,4 7 0 0,0
15.11.2018 09:00:00 12,1 11,6 10,2 10,2 50 27 63 34 SSE 1005,8 6 0 0,8
15.11.2018 08:00:00 10,9 10,7 - - 24 13 - - SE 1007,1 4,0 0 0,6
15.11.2018 07:00:00 11,2 10,5 - - 28 15 - - SSE 1007,7 6 0 0,0
15.11.2018 06:00:00 11,5 10,9 - - 18 10 - - SSE 1007,8 4,6 0 0,0
15.11.2018 05:00:00 11,3 10,0 - - 21 11 - - S 1008,0 8 0 0,0
15.11.2018 04:00:00 11,3 10,3 - - 22 12 - - S 1008,2 7 0 0,0
15.11.2018 03:00:00 11,3 10,4 - - 24 13 - - SSW 1008,3 7 0 0,4
15.11.2018 02:00:00 11,5 10,7 - - 26 14 - - SSW 1008,0 8 0 0,0
15.11.2018 01:00:00 11,4 11,0 - - 34 18 46 25 S 1007,8 6 0 0,2
15.11.2018 00:00:00 11,5 10,9 - - 35 19 55 30 S 1007,2 6 - 1,0
14.11.2018 23:00:00 12,4 11,6 - - 44 24 63 34 S 1006,6 3,1 0 0,2
14.11.2018 22:00:00 12,9 11,5 - - 50 27 68 37 S 1005,1 8 0 0,0
14.11.2018 21:00:00 13,2 11,6 - - 50 27 68 37 SSE 1004,6 8 0 0,0
14.11.2018 20:00:00 13,1 11,5 - - 50 27 67 36 SSE 1004,2 7 0 0,0
14.11.2018 19:00:00 13,0 11,5 - - 44 24 61 33 SSE 1003,9 8 0 0,0
14.11.2018 18:00:00 12,8 11,5 - - 46 25 65 35 SSE 1003,6 8 0 0,0
14.11.2018 17:00:00 13,0 11,6 - - 48 26 63 34 SSE 1003,2 9 0 0,0
14.11.2018 16:00:00 12,9 11,6 - - 42 23 55 30 SSE 1003,3 9 0 0,0
14.11.2018 15:00:00 12,9 11,7 - - 41 22 54 29 S 1003,5 9 0 0,0
14.11.2018 14:00:00 13,2 12,0 - - 39 21 52 28 S 1003,6 9 0 0,0
14.11.2018 13:00:00 12,9 12,1 - - 37 20 46 25 S 1003,8 9 0 0,0
14.11.2018 12:00:00 13,0 12,3 - - 41 22 54 29 S 1003,3 9 0 0,4
14.11.2018 11:00:00 12,7 12,2 - - 41 22 55 30 S 1002,7 5 0 0,0
14.11.2018 10:00:00 12,5 12,2 - - 39 21 50 27 S 1002,3 5 0 1,2
14.11.2018 09:00:00 12,1 11,9 9,9 10,2 35 19 - - S 1002,2 5 0 1,4
14.11.2018 08:00:00 11,6 11,4 - - 29 16 - - SSE 1002,2 4,5 0 1,8
14.11.2018 07:00:00 11,4 11,1 - - 28 15 - - SSE 1002,6 2,9 0 0,8
14.11.2018 06:00:00 11,2 10,8 - - 28 15 - - SSE 1002,7 7 0 0,6
14.11.2018 05:00:00 11,3 10,5 - - 34 18 46 25 S 1003,3 11 0 0,0
14.11.2018 04:00:00 11,1 10,4 - - 31 17 - - SSE 1003,6 11 0 0,0
14.11.2018 03:00:00 10,8 10,4 - - 31 17 50 27 S 1004,5 5 0 0,4
14.11.2018 02:00:00 10,8 10,2 - - 37 20 55 30 S 1005,3 4,4 0 0,0
14.11.2018 01:00:00 10,8 10,2 - - 42 23 55 30 S 1006,0 8 0 0,0
14.11.2018 00:00:00 10,5 10,0 - - 42 23 57 31 S 1006,5 3,5 - 0,4
13.11.2018 23:00:00 10,5 9,9 - - 44 24 61 33 S 1006,7 3,8 0 0,2
13.11.2018 22:00:00 10,6 9,7 - - 48 26 63 34 S 1007,0 7 0 0,2
13.11.2018 21:00:00 10,7 9,4 - - 46 25 68 37 S 1007,3 11 0 0,6
13.11.2018 20:00:00 10,5 9,1 - - 46 25 63 34 S 1007,7 5 0 1,6
13.11.2018 19:00:00 10,2 8,9 - - 46 25 67 36 S 1008,2 5 0 0,8
13.11.2018 18:00:00 10,9 7,8 - - 46 25 67 36 S 1008,2 10 0 0,0
13.11.2018 17:00:00 10,5 7,4 - - 44 24 57 31 S 1008,8 10 0 0,0
13.11.2018 16:00:00 10,4 7,5 - - 39 21 54 29 S 1009,3 10 6 0,0
13.11.2018 15:00:00 10,3 7,1 - - 35 19 46 25 S 1009,5 16 48 0,0
13.11.2018 14:00:00 10,7 7,5 - - 35 19 52 28 SSW 1009,7 10 42 0,0
13.11.2018 13:00:00 10,8 7,9 - - 24 13 - - SSW 1009,6 10 60 0,0
13.11.2018 12:00:00 11,1 7,0 - - 21 11 - - SSW 1009,5 10 60 0,0
13.11.2018 11:00:00 10,7 6,7 - - 22 12 - - SW 1009,4 10 42 0,0
13.11.2018 10:00:00 9,5 6,6 - - 16 9 - - WSW 1008,6 19 30 0,0
13.11.2018 09:00:00 9,1 6,3 9,9 10,2 22 12 - - W 1007,9 21 0 0,0
13.11.2018 08:00:00 9,4 6,6 - - 28 15 - - W 1006,4 24 0 0,0
13.11.2018 07:00:00 9,5 7,1 - - 31 17 50 27 W 1004,9 28 0 0,0
13.11.2018 06:00:00 9,7 7,9 - - 29 16 - - W 1003,3 16 0 0,0
13.11.2018 05:00:00 9,6 7,7 - - 31 17 46 25 W 1001,9 20 0 0,0
13.11.2018 04:00:00 9,4 8,2 - - 18 10 - - W 1000,2 21 0 0,0
13.11.2018 03:00:00 9,0 7,6 - - 16 9 - - W 999,2 35 0 0,2
13.11.2018 02:00:00 8,0 7,3 - - 13 7 - - WSW 998,2 25 0 0,0
13.11.2018 01:00:00 8,3 7,3 - - 13 7 - - SSW 997,4 24 0 0,2
13.11.2018 00:00:00 9,1 7,7 - - 16 9 57 31 SSW 996,9 22 - 0,2
12.11.2018 23:00:00 9,7 8,7 - - 24 13 - - S 996,4 14 0 0,0
12.11.2018 22:00:00 9,6 8,4 - - 28 15 - - S 996,0 16 0 0,6
12.11.2018 21:00:00 10,4 7,4 - - 34 18 46 25 S 995,7 26 0 0,0
12.11.2018 20:00:00 10,6 7,5 - - 34 18 46 25 S 995,7 21 0 0,0
12.11.2018 19:00:00 10,1 7,3 - - 34 18 46 25 S 995,3 24 0 0,0
12.11.2018 18:00:00 10,1 7,4 - - 31 17 46 25 S 995,3 18 0 0,0
12.11.2018 17:00:00 9,8 7,3 - - 35 19 46 25 S 994,9 10 0 0,0
12.11.2018 16:00:00 10,3 7,4 - - 35 19 48 26 S 994,6 16 0 0,0
12.11.2018 15:00:00 10,4 7,5 - - 37 20 52 28 S 994,4 15 0 0,0
12.11.2018 14:00:00 10,4 7,7 - - 37 20 50 27 S 994,4 14 0 0,0
12.11.2018 13:00:00 10,4 7,6 - - 35 19 52 28 S 994,6 15 6 0,0
12.11.2018 12:00:00 10,2 7,6 - - 39 21 52 28 S 994,5 10 0 0,0
12.11.2018 11:00:00 10,1 7,4 - - 39 21 52 28 S 994,3 17 0 0,0
12.11.2018 10:00:00 10,1 7,4 - - 39 21 55 30 S 994,0 10 0 0,0
12.11.2018 09:00:00 10,1 7,8 9,9 10,4 41 22 57 31 S 993,6 10 0 0,0
12.11.2018 08:00:00 10,1 7,6 - - 41 22 54 29 S 993,1 14 0 0,0
12.11.2018 07:00:00 9,9 7,5 - - 42 23 59 32 S 992,6 14 0 0,0
12.11.2018 06:00:00 10,0 7,2 - - 37 20 54 29 S 992,1 16 0 0,0
12.11.2018 05:00:00 10,0 7,2 - - 41 22 54 29 S 991,9 15 0 0,0
12.11.2018 04:00:00 10,0 7,5 - - 39 21 52 28 S 991,6 14 0 0,0

tt = Température de l'air
td = dewpoint
tt -20cm = Température de l'air -20cm
tt -100cm = Température de l'air -100cm
ff = Vitesse du vent
fx = gusts
dd = Direction du vent
ppp = reduced air pressure
vv = visibility
sd = Ensoleillement
rr = Quantités de précipitations

stations d'obs. à proximité